FW3784 Weather Reports


Display with metric or nautical units.
time (UTC)temp
F
wind
direction
speed
MPH
gust
MPH
rain 1hr
in
rain 24hr
in
rain mn
in
humidity
%
barometer
mb
20260507171531 57 340 0.0 0.0 0.00 0.27 0.01 46 1005.9
20260507170040 58 92 0.0 0.0 0.00 0.27 0.01 47 1006.0
20260507164526 57 46 0.0 0.0 0.00 0.27 0.01 50 1006.2
20260507163025 57 355 0.0 0.0 0.00 0.27 0.01 48 1006.3
20260507161523 57 65 0.0 0.0 0.00 0.27 0.01 47 1006.4
20260507160021 55 144 0.0 0.0 0.00 0.27 0.01 59 1006.7
20260507154521 55 67 0.0 1.0 0.00 0.27 0.01 59 1006.7
20260507153021 55 44 0.0 0.0 0.00 0.27 0.01 61 1006.7
20260507151517 54 73 0.0 0.0 0.00 0.27 0.01 62 1007.0
20260507150016 52 49 0.0 0.0 0.00 0.27 0.01 67 1007.1
20260507144514 53 355 0.0 0.0 0.00 0.27 0.01 66 1007.1
20260507143013 52 220 0.0 0.0 0.00 0.27 0.01 70 1007.0
20260507141512 51 49 0.0 0.0 0.00 0.27 0.01 73 1007.1
20260507140012 51 33 0.0 0.0 0.00 0.27 0.01 70 1007.1
20260507134514 53 283 0.0 0.0 0.00 0.27 0.01 67 1007.1
20260507133009 53 275 0.0 0.0 0.00 0.27 0.01 69 1007.2
20260507131510 51 69 0.0 0.0 0.00 0.27 0.01 72 1007.3
20260507130110 50 37 0.0 0.0 0.00 0.27 0.01 78 1007.3
20260507124558 49 39 0.0 0.0 0.00 0.27 0.01 78 1007.2
20260507123057 48 75 0.0 0.0 0.00 0.27 0.01 79 1007.2
20260507121605 47 70 0.0 0.0 0.00 0.27 0.01 83 1007.4
20260507120059 45 69 0.0 0.0 0.00 0.27 0.01 90 1007.5
20260507114604 44 360 0.0 0.0 0.00 0.27 0.01 95 1007.4
20260507113052 43 360 0.0 0.0 0.00 0.27 0.01 95 1007.4
20260507111551 43 360 0.0 0.0 0.00 0.27 0.01 95 1007.3
20260507110052 42 360 0.0 0.0 0.00 0.27 0.01 94 1007.3
20260507104549 42 360 0.0 0.0 0.00 0.27 0.01 94 1006.9
20260507103048 42 360 0.0 0.0 0.00 0.27 0.01 93 1006.9
20260507101547 42 360 0.0 0.0 0.00 0.27 0.01 93 1007.2
20260507100045 43 360 0.0 0.0 0.00 0.27 0.01 93 1007.2
20260507094546 43 360 0.0 0.0 0.00 0.27 0.01 94 1007.2
20260507093049 43 360 0.0 0.0 0.00 0.27 0.01 94 1007.3
20260507091538 43 360 0.0 0.0 0.00 0.27 0.01 94 1006.8
20260507090039 44 360 0.0 0.0 0.00 0.27 0.01 94 1006.6
20260507084535 44 360 0.0 0.0 0.00 0.27 0.01 94 1006.6
20260507083035 44 360 0.0 0.0 0.00 0.27 0.01 94 1006.5
20260507081543 44 360 0.0 0.0 0.00 0.27 0.01 94 1006.6
20260507080032 44 360 0.0 0.0 0.00 0.27 0.01 93 1006.3
20260507074549 45 360 0.0 0.0 0.00 0.27 0.01 93 1006.5
20260507073029 45 360 0.0 0.0 0.00 0.27 0.01 93 1006.0
20260507071529 45 360 0.0 0.0 0.00 0.27 0.01 93 1005.9
20260507070027 45 360 0.0 0.0 0.00 0.27 0.01 93 1006.2
20260507064525 45 360 0.0 0.0 0.01 0.27 0.01 93 1006.1
20260507063026 46 360 0.0 0.0 0.01 0.27 0.01 93 1006.1
20260507061520 46 360 0.0 0.0 0.01 0.27 0.01 93 1005.8
20260507060025 46 72 0.0 0.0 0.01 0.27 0.01 93 1005.8
20260507054519 46 347 0.0 0.0 0.00 0.26 0.00 93 1005.9
20260507053015 47 347 0.0 0.0 0.00 0.26 0.00 93 1005.6
20260507051512 47 347 0.0 0.0 0.00 0.26 0.00 93 1005.4
20260507050024 47 347 0.0 0.0 0.00 0.26 0.00 92 1005.5
20260507044509 47 347 0.0 0.0 0.00 0.26 0.00 92 1005.5
20260507043006 48 347 0.0 0.0 0.00 0.26 0.00 92 1005.5
20260507041502 48 313 0.0 0.0 0.00 0.26 0.00 92 1005.5
20260507040101 48 313 0.0 0.0 0.01 0.26 0.00 91 1005.5
20260507034602 49 325 0.0 0.0 0.01 0.26 0.26 91 1005.2
20260507033104 49 324 0.0 0.0 0.01 0.26 0.26 91 1005.5
20260507031606 50 360 0.0 0.0 0.01 0.26 0.26 91 1005.4
20260507030057 50 337 0.0 0.0 0.00 0.25 0.25 90 1005.4
20260507024552 51 24 0.0 0.0 0.00 0.25 0.25 90 1005.3
20260507023059 52 329 0.0 0.0 0.00 0.25 0.25 89 1005.1
20260507021546 53 63 0.0 0.0 0.01 0.25 0.25 90 1004.9
20260507020048 53 282 0.0 0.0 0.01 0.25 0.25 90 1004.8
20260507014550 54 42 0.0 0.0 0.02 0.25 0.25 90 1004.7
20260507013045 55 53 0.0 0.0 0.03 0.25 0.25 90 1004.4
20260507011543 56 53 0.0 0.0 0.04 0.24 0.24 91 1004.3
20260507010044 57 53 0.0 0.0 0.04 0.24 0.24 91 1004.3
20260507004541 57 53 0.0 0.0 0.05 0.23 0.23 91 1004.1
20260507003043 58 303 0.0 0.0 0.05 0.22 0.22 93 1003.8
20260507001541 59 90 0.0 0.0 0.03 0.20 0.20 93 1003.6
20260507000042 59 90 0.0 0.0 0.03 0.20 0.20 93 1003.5
20260506234540 59 90 0.0 0.0 0.01 0.18 0.18 93 1003.4
20260506233045 59 90 0.0 0.0 0.00 0.17 0.17 93 1003.2
20260506231538 59 20 0.0 0.0 0.00 0.17 0.17 93 1003.1
20260506230037 59 62 0.0 0.0 0.00 0.17 0.17 93 1003.1
20260506224537 59 76 0.0 0.0 0.00 0.17 0.17 94 1003.1
20260506223035 59 57 0.0 0.0 0.00 0.17 0.17 94 1003.2
20260506221533 59 51 0.0 0.0 0.00 0.17 0.17 94 1003.4
20260506220033 59 53 0.0 0.0 0.00 0.17 0.17 94 1003.5
20260506214531 58 200 0.0 0.0 0.01 0.17 0.17 93 1003.5
20260506213031 59 25 0.0 1.0 0.01 0.17 0.17 93 1003.6
20260506211528 59 22 0.0 0.0 0.01 0.17 0.17 93 1003.8
20260506210059 59 22 0.0 0.0 0.01 0.17 0.17 93 1003.9
20260506204556 60 22 0.0 0.0 0.03 0.16 0.16 94 1004.0
20260506203054 59 22 0.0 0.0 0.05 0.16 0.16 94 1004.2
20260506201551 59 22 0.0 0.0 0.06 0.16 0.16 93 1004.4
20260506200049 59 22 0.0 0.0 0.07 0.16 0.16 93 1004.4
20260506194548 60 22 0.0 0.0 0.05 0.13 0.13 93 1004.6
20260506193048 60 22 0.0 0.0 0.03 0.11 0.11 93 1004.8
20260506191544 60 89 0.0 0.0 0.03 0.10 0.10 93 1005.0
20260506190044 60 65 0.0 0.0 0.04 0.09 0.09 94 1005.1
20260506184526 60 82 0.0 0.0 0.05 0.08 0.08 94 1005.3
20260506183026 60 47 0.0 0.0 0.06 0.08 0.08 94 1005.3
20260506181524 60 47 0.0 0.0 0.07 0.07 0.07 94 1005.7
20260506180023 60 47 0.0 0.0 0.05 0.05 0.05 93 1005.7
20260506174522 60 47 0.0 0.0 0.03 0.03 0.03 92 1005.9
20260506173022 60 47 0.0 0.0 0.02 0.02 0.02 91 1005.7